Regional Weather Roundup
Issued by NWS

Home | Current Version | Previous Version | Graphics & Text | Print | Product List | Glossary On
Versions: 1 2 3 4 5 6 7 8 9 10 11 12 13 14 15 16 17 18 19 20 21 22 23 24 25 26 27 28 29 30 31 32 33 34 35 36 37 38 39 40 41 42 43 44 45 46 47 48 49 50
000
ASUS43 KMPX 291410
RWRMN
WEATHER ROUNDUP FOR MINNESOTA
NATIONAL WEATHER SERVICE TWIN CITIES/CHANHASSEN MN
900 AM CDT SUN MAR 29 2015


NOTE: "FAIR" INDICATES FEW OR NO CLOUDS BELOW 12,000 FEET WITH NO
SIGNIFICANT WEATHER AND/OR OBSTRUCTIONS TO VISIBILITY. N/A MEANS
CURRENT SKY AND/OR WEATHER CONDITIONS ARE NOT AVAILABLE.

MNZ060>063-068>070-291500-
   Twin Cities Metro

CITY           SKY/WX    TMP DP  RH WIND       PRES   REMARKS
TWIN CITIES    CLOUDY    38  32  79 S17G26    29.60F
ST PAUL        CLOUDY    37  33  85 S10       29.62F
CRYSTAL        CLOUDY    39  32  76 S12G22    29.57F
BLAINE         CLOUDY    39  36  87 S16G22    29.58F
LAKEVILLE      CLOUDY    36  32  87 S9G17     29.61F
EDEN PRAIRIE   CLOUDY    38  32  79 SW12      29.58F
SOUTH ST PAUL  CLOUDY    38  34  87 S10       29.61F
LAKE ELMO      CLOUDY    34  32  93 S13       29.62F WCI  25
$$
MNZ001>005-007-008-013>017-022>024-027-028-291500-
   Northwest Minnesota

CITY           SKY/WX    TMP DP  RH WIND       PRES   REMARKS
BEMIDJI        LGT RAIN  38  37  93 NW22G32   29.51R
HALLOCK        CLOUDY    37  34  87 NW24G32   29.70R
ROSEAU         CLOUDY    36  30  80 NW24G33   29.60R
WARROAD        CLOUDY    34  30  86 NW25G35   29.58R WCI  21
THIEF RVR FALL CLOUDY    36  34  93 NW26G33   29.64R
CROOKSTON      CLOUDY    36  36 100 N33G48    29.70R
FOSSTON        CLOUDY    36  34  93 NW24G30   29.61R
DETROIT LAKES  LGT RAIN  36  34  93 NW25G37   29.62R
MOORHEAD       CLOUDY    39  37  93 N31G45    29.70R
PARK RAPIDS    LGT RAIN  40  38  93 NW26G35   29.49R
MAHNOMEN       CLOUDY    35  34  95 NW30G41   29.62R WCI  22
$$
MNZ006-009>011-018-025>026-291500-
   North Central Minnesota

CITY           SKY/WX    TMP DP  RH WIND       PRES   REMARKS
BAUDETTE       CLOUDY    35  32  88 NW35G40   29.50R WCI  21
FLAG ISLAND    CLOUDY    34  30  86 NW32G43   29.54R WCI  20
INTL FALLS     LGT RAIN  34  32  92 W7        29.42S FOG     WCI  28
WASKISH        LGT RAIN  37  37 100 NW17G29   29.50R
BIG FORK       LGT RAIN  36  34  93 SW9       29.45R
LONGVILLE      RAIN      36  34  93 SW5       29.47S
GRAND RAPIDS   CLOUDY    36  30  80 SW7       29.46R
CRANE LAKE     CLOUDY    32  30  93 S6        29.44F WCI  26
ORR            LGT SNOW  32  30  93 SW5       29.41S WCI  27
COOK           LGT SNOW  34  32  93 SW7       29.44S WCI  28
WALKER         DRIZZLE   37  36  96 NW8       29.48R
$$
MNZ012-019>021-037-291500-
   Northeast Minnesota

CITY           SKY/WX    TMP DP  RH WIND       PRES   REMARKS
DULUTH         LGT RAIN  35  29  78 SW22G28   29.47F WCI  23
ELY            LGT SNOW  32  30  93 SW10      29.43F WCI  24
HIBBING        LGT RAIN  33  31  92 VRB6      29.45F FOG     WCI  28
EVELETH        LGT SNOW  32  32 100 SW7       29.46F WCI  26
DULUTH HARBOR  CLOUDY    37  30  75 SW22G29   29.51F
TWO HARBORS    CLOUDY    37  30  75 SW15      29.48F
SILVER BAY     FLURRIES  36  28  75 SW10G17   29.47F
GRAND MARAIS     N/A     32  31  96 W8        29.52F WCI  25
G MARAIS ARPRT LGT SNOW  28  25  86 S13G20    29.46F VSB 3/4 WCI  18
$$
MNZ029>031-032-039>041-046>048-054>057-064-291500-
   West Central Minnesota

CITY           SKY/WX    TMP DP  RH WIND       PRES   REMARKS
FERGUS FALLS   LGT RAIN  37  37 100 N33G49    29.66R
WHEATON        LGT RAIN  39  36  87 NW20G40   29.71R
MORRIS         LGT RAIN  43  39  87 NW33G49   29.62R
ALEXANDRIA     RAIN      40  37  89 NW25G46   29.55R FOG
ELBOW LAKE     LGT RAIN  38  37  94 NW29G35   29.62R
WADENA         RAIN      39  37  93 NW24G33   29.52R
GLENWOOD       RAIN      43  39  87 W32G38    29.55R
APPLETON       LGT RAIN  46  41  81 NW25G33   29.65R
BENSON         LGT RAIN  45  41  87 N33G44    29.61R
ORTONVILLE     RAIN      43  37  81 NW28G37   29.68R
MADISON        DRIZZLE   46  39  76 NW31G44   29.66R
WILLMAR        CLOUDY    45  39  81 W22G29    29.59R HAZE
$$
MNZ033>034-036-042>043-049>051-058-059-291500-
   Central Minnesota

CITY           SKY/WX    TMP DP  RH WIND       PRES   REMARKS
ST CLOUD       CLOUDY    38  34  85 S13       29.52F
SAUK CENTRE    CLOUDY    43  40  89 W21G28    29.51S
PAYNESVILLE    CLOUDY    41  37  87 SW22      29.55R
AITKIN         MIX PCPN  39  34  81 SW13      29.46S
PINE RIVER     LGT RAIN  37  36  93 W3        29.52R
BRAINERD       LGT RAIN  36  34  92 SW8G18    29.49R FOG
STAPLES        RAIN      39  39 100 W14       29.49R
LONG PRAIRIE   CLOUDY    41  37  87 W13G20    29.50S
LITTLE FALLS   CLOUDY    37  34  87 SW6       29.49F
LITCHFIELD     CLOUDY    43  39  87 CALM      29.57S
BUFFALO        CLOUDY    37  32  81 S9        29.57F
MAPLE LAKE     CLOUDY    40  36  87 S9        29.56F
$$
MNZ037-044-045-052-053-291500-
   East Central Minnesota

CITY           SKY/WX    TMP DP  RH WIND       PRES   REMARKS
PRINCETON      CLOUDY    37  34  87 S9G20     29.53F
MORA           CLOUDY    34  30  86 S10       29.54F WCI  26
CAMBRIDGE      DRIZZLE   37  30  75 S9        29.53F
RUSH CITY      CLOUDY    34  31  88 S13       29.55F WCI  25
MOOSE LAKE     CLOUDY    34  30  86 SW15G25   29.48F WCI  24
HINCKLEY       CLOUDY    34  32  93 S15G21    29.53F WCI  24
CLOQUET        MIX PCPN  34  30  86 SW14G20   29.49R WCI  24
MCGREGOR       CLOUDY    36  32  87 S12G22    29.48F
$$
MNZ071>073-080-081-089-090-097-098-291500-
   Southwest Minnesota

CITY           SKY/WX    TMP DP  RH WIND       PRES   REMARKS
MONTEVIDEO     CLOUDY    46  39  76 NW17G28   29.64R HAZE
GRANITE FALLS  PTSUNNY   47  39  72 W24G37    29.65R
CANBY          CLOUDY    47  39  72 NW38G49   29.70R
MARSHALL       MOSUNNY   48  36  61 NW36G41   29.66R
REDWOOD FALLS  SUNNY     48  38  68 W20G28    29.62S
OLIVIA         PTSUNNY   45  39  81 W24G30    29.60S
PIPESTONE      PTSUNNY   48  37  66 NW24G33   29.72R
WINDOM         SUNNY     48  37  66 W21       29.68R
WORTHINGTON    SUNNY     46  37  71 W22G28    29.72R
JACKSON        SUNNY     46  36  66 W18G30    29.69F
TRACY          SUNNY     49  38  65 W16G31    29.66S
SLAYTON        SUNNY     46  35  63 W22G29    29.69S
$$
MNZ065>067-074>077-082>085-091>093-291500-
   South Central Minnesota

CITY           SKY/WX    TMP DP  RH WIND       PRES   REMARKS
MANKATO        PTSUNNY   39  32  75 SW15      29.63F
NEW ULM        MOSUNNY   48  37  66 W22G29    29.62F
ST JAMES       SUNNY     50  37  62 W23G30    29.66S
FAIRMONT       SUNNY     46  37  71 W18       29.66S
GLENCOE        SUNNY     40  36  85 SW8       29.58F
FARIBAULT      CLOUDY    37  34  87 S14G21    29.64F
OWATONNA       CLOUDY    37  32  81 S22       29.65F
WASECA         PTSUNNY   37  32  81 S21G26    29.67F
ALBERT LEA     SUNNY     39  36  87 SW14G22   29.69F
$$
MNZ078>079-086>088-094>096-291500-
   Southeast Minnesota

CITY           SKY/WX    TMP DP  RH WIND       PRES   REMARKS
ROCHESTER      PTSUNNY   34  30  85 S31G39    29.68F WCI  20
RED WING       CLOUDY    37  30  75 S12G23    29.64F
STANTON        CLOUDY    37  32  82 S15G22    29.62F
DODGE CENTER   PTSUNNY   34  32  93 S26G33    29.65F WCI  21
WINONA         CLOUDY    36  32  87 SW12G18   29.73F
AUSTIN         CLOUDY    34  30  86 S16G22    29.70F WCI  23
PRESTON        CLOUDY    32  29  90 S14       29.74F WCI  22
$$
ABBREVIATIONS USED IN REMARKS
   TC - TEMPERATURES IN CELSIUS
  WCI - WIND CHILL INDEX
   HX - HEAT INDEX
  VSB - VISIBILITY
$$


USA.gov is the U.S. government's official web portal to all federal, state and local government web resources and services.